"Time","Temp","Dewpoint","Humidity","Pressure","Direction","Speed","Gust","Precip","PrecipRate","Solar"
"00:04:56","38","28.7","69","30.14","344","3","8.1","0.00","0.00","0"
"00:09:57","38.1","28.8","69","30.14","345","3.4","13.2","0.00","0.00","0"
"00:14:59","38.2","29","69.3","30.15","303","1.8","4.8","0.00","0.00","0"
"00:19:59","38.3","29","69","30.15","345","3.4","8.4","0.00","0.00","0"
"00:24:59","38.4","28.9","68.3","30.15","334","3.5","8.4","0.00","0.00","0"
"00:29:59","38.6","29","68.2","30.15","334","4.1","8.1","0.00","0.00","0"
"00:34:59","38.7","29","68.2","30.15","310","3.8","9.6","0.00","0.00","0"
"00:39:59","38.7","29.2","68.7","30.15","74","2.4","6","0.00","0.00","0"
"00:44:56","38.7","29.2","68.5","30.15","336","2.9","7.2","0.00","0.00","0"
"00:49:59","38.6","29.3","69","30.15","333","3.5","6.9","0.00","0.00","0"
"00:54:56","38.6","29.3","69","30.15","301","2.3","4.8","0.00","0.00","0"
"00:59:56","38.6","29.3","69.2","30.15","301","1.3","3.6","0.00","0.00","0"
"01:04:58","38.5","29.6","70","30.15","278","2.2","4.8","0.00","0.00","0"
"01:09:57","38.4","29.4","69.8","30.15","314","1.4","6","0.00","0.00","0"
"01:14:57","38.4","29.5","70","30.15","274","1.8","3.6","0.00","0.00","0"
"01:19:57","38.3","29.4","70","30.15","274","0.8","3.6","0.00","0.00","0"
"01:24:57","38.2","29.6","70.9","30.15","275","0.1","1.2","0.00","0.00","0"
"01:29:57","38.2","29.3","70.1","30.15","274","0.8","3.6","0.00","0.00","0"
"01:34:57","38.1","29.5","71","30.15","274","0.8","2.4","0.00","0.00","0"
"01:39:57","38.1","29.4","70.6","30.15","275","1.5","4.8","0.00","0.00","0"
"01:44:57","38.1","29.4","70.9","30.15","275","1.6","3.6","0.00","0.00","0"
"01:49:56","38.1","29.5","71","30.15","275","1.7","3.6","0.00","0.00","0"
"01:54:56","38.1","29.5","71","30.15","333","1.7","6","0.00","0.00","0"
"01:59:59","38.2","29.7","71.3","30.16","346","0.7","2.4","0.00","0.00","0"
"02:04:57","38.1","29.7","71.4","30.16","346","0.9","2.4","0.00","0.00","0"
"02:09:56","38.2","29.5","70.8","30.16","343","1.4","4.8","0.00","0.00","0"
"02:14:57","38.2","29.6","71","30.16","343","0.4","3.6","0.00","0.00","0"
"02:19:57","38.2","29.7","71.2","30.16","343","0.2","2.4","0.00","0.00","0"
"02:24:57","38.1","29.8","71.7","30.16","343","0.5","2.4","0.00","0.00","0"
"02:29:57","38.1","29.5","71","30.16","343","0.4","2.4","0.00","0.00","0"
"02:34:57","38.1","29.6","71.2","30.16","343","0.4","2.4","0.00","0.00","0"
"02:39:57","38.1","29.9","72","30.16","343","0.3","1.2","0.00","0.00","0"
"02:44:58","38.1","29.9","72","30.16","343","0","0","0.00","0.00","0"
"02:49:58","38","30.3","73.5","30.16","343","0","0","0.00","0.00","0"
"02:54:58","37.9","30","73","30.16","343","0","0","0.00","0.00","0"
"02:59:58","37.9","29.7","72","30.16","343","0.3","2.4","0.00","0.00","0"
"03:04:57","37.9","29.7","72","30.16","343","0.4","1.2","0.00","0.00","0"
"03:09:57","37.9","29.8","72.2","30.16","343","0.5","2.4","0.00","0.00","0"
"03:14:57","37.9","30.2","73.4","30.16","343","0","0","0.00","0.00","0"
"03:19:57","37.9","30.4","74","30.16","343","0","0","0.00","0.00","0"
"03:24:58","37.8","30","73.3","30.16","343","0.8","2.4","0.00","0.00","0"
"03:29:59","37.7","29.8","73","30.16","343","0.5","2.4","0.00","0.00","0"
"03:34:59","37.7","29.9","73.1","30.16","343","0","1.2","0.00","0.00","0"
"03:39:59","37.7","30","73.4","30.16","343","0","0","0.00","0.00","0"
"03:44:56","37.7","29.9","73.5","30.16","343","0","1.2","0.00","0.00","0"
"03:49:56","37.6","30.2","74.2","30.16","343","0.2","2.4","0.00","0.00","0"
"03:54:56","37.6","30","73.7","30.16","343","0.4","2.3","0.00","0.00","0"
"03:59:59","37.6","30.4","75","30.16","343","0","0","0.00","0.00","0"
"04:04:58","37.5","30.3","75","30.16","343","0","1.2","0.00","0.00","0"
"04:09:57","37.4","30.2","75","30.16","343","0","1.2","0.00","0.00","0"
"04:14:58","37.4","30.2","75.1","30.16","343","0.4","2.4","0.00","0.00","0"
"04:19:59","37.3","30.4","76","30.15","343","0","1.2","0.00","0.00","0"
"04:24:57","37.3","30.6","76.7","30.15","343","0.1","1.2","0.00","0.00","0"
"04:29:59","37.2","30.3","75.8","30.15","343","0.4","1.2","0.00","0.00","0"
"04:34:56","37.3","29.8","74","30.15","343","0.5","2.4","0.00","0.00","0"
"04:39:59","37.3","29.8","74","30.15","343","0.3","2.4","0.00","0.00","0"
"04:44:56","37.4","29.9","74","30.16","343","0.1","2.3","0.00","0.00","0"
"04:49:56","37.5","30.1","74.3","30.16","343","0","0","0.00","0.00","0"
"04:54:56","37.4","30","74.1","30.16","343","0","0","0.00","0.00","0"
"04:59:57","37.4","29.9","74","30.16","343","0","0","0.00","0.00","0"
"05:04:56","37.4","29.9","74","30.16","343","0","0","0.00","0.00","0"
"05:09:59","37.4","30.1","74.5","30.16","343","0","0","0.00","0.00","0"
"05:14:56","37.4","30.2","75","30.16","343","0","0","0.00","0.00","0"
"05:19:56","37.3","30.2","75.1","30.16","343","0","0","0.00","0.00","0"
"05:24:57","37.3","30.6","76.8","30.16","343","0","0","0.00","0.00","0"
"05:29:57","37.2","30.4","76.2","30.16","343","0","0","0.00","0.00","0"
"05:34:57","37.1","30.2","76","30.16","343","0","0","0.00","0.00","0"
"05:39:57","37.1","30","75.5","30.16","343","0","0","0.00","0.00","0"
"05:44:59","37.1","30.2","76","30.17","343","0","0","0.00","0.00","0"
"05:49:59","37.1","30.2","76","30.17","343","0","0","0.00","0.00","0"
"05:54:58","37.1","30.2","76","30.17","343","0","0","0.00","0.00","0"
"05:59:58","37.1","30.2","76","30.17","343","0","0","0.00","0.00","0"
"06:04:57","37.1","30.2","75.8","30.17","343","0","0","0.00","0.00","0"
"06:09:57","37.1","30.5","76.7","30.17","343","0","0","0.00","0.00","0"
"06:14:59","37.1","30.7","77.5","30.18","343","0","0","0.00","0.00","0"
"06:19:59","37","30.5","77","30.18","343","0","0","0.00","0.00","0"
"06:24:59","37","30.5","77","30.18","343","0","0","0.00","0.00","0"
"06:29:59","36.9","30.3","76.7","30.18","343","0","0","0.00","0.00","0"
"06:34:59","36.9","30.4","77.1","30.18","343","0","0","0.00","0.00","0"
"06:39:58","36.8","30.6","78","30.18","343","0","0","0.00","0.00","0"
"06:44:59","36.8","30.8","78.7","30.19","343","0","0","0.00","0.00","0"
"06:49:59","36.7","30.8","79","30.19","343","0","0","0.00","0.00","0"
"06:54:59","36.7","30.8","79","30.19","343","0","0","0.00","0.00","0"
"06:59:56","36.7","30.7","78.8","30.19","343","0","0","0.00","0.00","0"
"07:04:59","36.7","30.8","79","30.19","343","0","0","0.00","0.00","0"
"07:09:58","36.7","31","79.6","30.19","343","0","0","0.00","0.00","0"
"07:14:59","36.7","30.8","79.1","30.19","343","0","0","0.00","0.00","0"
"07:19:58","36.7","30.8","79","30.19","343","0","0","0.00","0.00","0"
"07:24:58","36.7","30.7","78.8","30.19","343","0","0","0.00","0.00","0"
"07:29:58","36.7","30.7","78.9","30.20","343","0","0","0.00","0.00","0"
"07:34:59","36.7","30.8","79","30.20","343","0","0","0.00","0.00","5"
"07:39:58","36.7","30.8","79","30.20","343","0","0","0.00","0.00","9"
"07:44:56","36.7","30.8","79","30.20","343","0","0","0.00","0.00","11"
"07:49:56","36.7","31.1","79.9","30.20","343","0","0","0.00","0.00","12"
"07:54:59","36.8","31.2","80","30.20","343","0","0","0.00","0.00","18"
"07:59:59","36.9","31.5","80.9","30.20","343","0","0","0.00","0.00","19"
"08:04:58","37","32","81.9","30.20","343","0","0","0.00","0.00","21"
"08:09:57","37.1","31.5","80.1","30.20","343","0","0","0.00","0.00","25"
"08:14:58","37.3","31.4","79","30.20","343","0","0","0.00","0.00","30"
"08:19:57","37.5","31.5","78.6","30.20","343","0","0","0.00","0.00","33"
"08:24:57","37.7","31.6","78.2","30.20","343","0","0","0.00","0.00","37"
"08:29:57","37.9","31.6","77.8","30.21","343","0","0","0.00","0.00","42"
"08:34:57","38.1","31.3","76.4","30.21","343","0","0","0.00","0.00","58"
"08:39:56","38.3","31.1","75.2","30.21","343","0","0","0.00","0.00","74"
"08:44:57","38.6","31.4","75.1","30.21","343","0","0","0.00","0.00","81"
"08:49:56","38.8","31.8","75.6","30.20","343","0","0","0.00","0.00","79"
"08:54:56","39.1","32.1","75.8","30.20","343","0","0","0.00","0.00","109"
"08:59:56","39.5","32","74.3","30.20","343","0","0","0.00","0.00","229"
"09:04:58","40.7","31.9","70.4","30.20","343","0.1","2.4","0.00","0.00","269"
"09:09:57","41.5","30.9","65.8","30.20","343","0.7","2.4","0.00","0.00","297"
"09:14:58","40.9","29.8","64.4","30.20","347","1.4","3.6","0.00","0.00","155"
"09:19:57","40.5","29.9","65.5","30.20","348","0.1","1.2","0.00","0.00","144"
"09:24:57","40.7","29.9","65.3","30.20","348","0","0","0.00","0.00","149"
"09:29:56","40.5","29.9","65.5","30.20","34","1.1","3.6","0.00","0.00","148"
"09:34:59","40.5","29.5","64.5","30.20","42","0.9","2.4","0.00","0.00","139"
"09:39:58","40.4","29.8","65.7","30.20","42","0.6","2.4","0.00","0.00","111"
"09:44:56","40.6","29.8","65.2","30.21","55","1.5","3.6","0.00","0.00","113"
"09:49:58","40.7","29.9","65.3","30.21","95","1.5","3.6","0.00","0.00","125"
"09:54:58","40.8","30.1","65.4","30.21","96","1.9","3.6","0.00","0.00","141"
"09:59:57","41","30.2","65.2","30.21","95","1.7","4.8","0.00","0.00","216"
"10:04:56","41.3","30.6","65.5","30.20","95","1.2","3.6","0.00","0.00","202"
"10:09:59","41.6","30.5","64.5","30.20","121","2.6","6","0.00","0.00","197"
"10:14:59","41.7","30.5","64.2","30.20","165","2.6","4.8","0.00","0.00","190"
"10:19:58","42","30.8","64.4","30.20","199","3.4","8.4","0.00","0.00","306"
"10:24:57","42.1","30.8","64","30.20","162","3.8","8.1","0.00","0.00","306"
"10:29:56","41.7","30.2","63.3","30.20","124","3.7","6","0.00","0.00","185"
"10:34:56","41.6","30.2","63.9","30.20","130","3","6","0.00","0.00","167"
"10:39:59","41.6","30.4","64.3","30.20","124","2.6","4.8","0.00","0.00","176"
"10:44:59","41.8","30.7","64.4","30.20","113","1.8","8.4","0.00","0.00","160"
"10:49:58","42","31.4","65.8","30.20","148","3.3","7.2","0.00","0.00","139"
"10:54:57","41.8","31.2","65.8","30.20","115","4.3","8.4","0.00","0.00","141"
"10:59:57","41.4","31.1","66.5","30.20","130","2.5","6.9","0.00","0.00","105"
"11:04:56","41.3","31.1","66.8","30.20","155","2.9","7.2","0.00","0.00","113"
"11:09:59","41.3","30.8","66","30.20","154","3","4.8","0.00","0.00","123"
"11:14:57","41.5","31.3","66.9","30.20","180","2.2","3.6","0.00","0.00","127"
"11:19:56","41.6","31.2","66.3","30.19","154","3.4","7.2","0.00","0.00","128"
"11:24:59","41.7","30.8","65.2","30.19","187","2.7","6","0.00","0.00","120"
"11:29:59","41.7","31.2","66","30.19","165","2.3","6","0.00","0.00","128"
"11:34:58","41.9","31.3","65.9","30.19","153","3.4","10.8","0.00","0.00","186"
"11:39:57","42","31.3","65.4","30.19","173","3.6","8.4","0.00","0.00","200"
"11:44:56","42.2","31.3","65.1","30.19","117","4.3","7.2","0.00","0.00","178"
"11:49:59","42.2","31.4","65.3","30.18","173","2.7","6","0.00","0.00","178"
"11:54:58","42.2","31.4","65.2","30.18","139","3.9","8.4","0.00","0.00","153"
"11:59:58","42.2","31.4","65.4","30.18","122","4.9","7.2","0.00","0.00","162"
"12:04:56","41.9","31.2","65.4","30.17","141","4","7.2","0.00","0.00","134"
"12:09:56","41.8","31.3","66","30.17","156","3.4","10.8","0.00","0.00","120"
"12:14:59","41.7","31.2","65.9","30.17","163","3.5","7.2","0.00","0.00","105"
"12:19:58","41.7","31.4","66.6","30.17","173","3.2","7.2","0.00","0.00","104"
"12:24:57","41.8","31.4","66.3","30.17","150","2.7","4.8","0.00","0.00","141"
"12:29:57","42","31.4","65.8","30.17","136","4.5","8.4","0.00","0.00","158"
"12:34:57","42","31.6","66.2","30.16","132","3.7","7.2","0.00","0.00","158"
"12:39:59","42.1","31.6","66.1","30.16","148","2.9","7.2","0.00","0.00","139"
"12:44:59","42.3","31.6","65.5","30.16","146","4.5","9.6","0.00","0.00","148"
"12:49:58","42.3","31.5","65.3","30.15","154","4.2","10.8","0.00","0.00","148"
"12:54:57","42.4","31.6","65.3","30.15","116","4.8","9.6","0.00","0.00","146"
"12:59:57","42.2","31.5","65.6","30.15","145","3.4","6.9","0.00","0.00","104"
"13:04:59","42.2","31.6","65.8","30.14","162","3.3","7.2","0.00","0.00","109"
"13:09:58","42.2","31.3","65","30.14","143","4.1","10.8","0.00","0.00","113"
"13:14:58","42.1","31.4","65.4","30.14","144","4","9.6","0.00","0.00","130"
"13:19:57","42.1","31.4","65.6","30.13","185","3","7.2","0.00","0.00","120"
"13:24:56","42.2","31.5","65.7","30.13","144","3.9","7.2","0.00","0.00","107"
"13:29:59","42.1","31.3","65.1","30.13","132","4.4","8.4","0.00","0.00","118"
"13:34:58","42.1","31.4","65.5","30.12","149","4.1","8.4","0.00","0.00","120"
"13:39:57","42","31.4","65.6","30.12","127","4.7","8.4","0.00","0.00","120"
"13:44:57","42","31.4","65.7","30.12","152","3.6","10.8","0.00","0.00","111"
"13:49:56","42.1","31.6","66","30.12","127","3.7","7.2","0.00","0.00","116"
"13:54:55","42.2","31.6","66","30.12","150","3","7.2","0.00","0.00","121"
"13:59:59","42.3","31.6","65.8","30.12","176","2.9","4.8","0.00","0.00","91"
"14:04:57","42.3","31.6","65.5","30.11","124","3.5","8.4","0.00","0.00","86"
"14:09:59","42.2","31.3","65.2","30.11","124","4.1","8.4","0.00","0.00","97"
"14:14:59","42.1","31.2","65.2","30.11","121","4.6","8.4","0.00","0.00","97"
"14:19:56","42","31.4","65.7","30.10","128","3.6","7.2","0.00","0.00","91"
"14:24:59","42.2","31.6","65.9","30.10","138","2.6","6","0.00","0.00","107"
"14:29:58","42.4","31.5","65.2","30.10","109","3.5","7.2","0.00","0.00","114"
"14:34:57","42.4","31.4","64.8","30.10","114","4.6","8.4","0.00","0.00","107"
"14:39:56","42.4","31.5","65","30.10","128","3.4","6","0.00","0.00","97"
"14:44:56","42.5","31.7","65.4","30.10","132","2.2","7.2","0.00","0.00","97"
"14:49:56","42.6","31.6","64.7","30.10","164","3.1","6.9","0.00","0.00","105"
"14:54:59","42.9","31.8","64.8","30.10","167","3.4","8.4","0.00","0.00","98"
"14:59:58","42.9","31.5","63.8","30.10","157","3.4","7.2","0.00","0.00","86"
"15:04:56","42.8","31.4","63.6","30.10","170","3","7.2","0.00","0.00","76"
"15:09:59","42.8","31.3","63.6","30.10","161","3.1","6.9","0.00","0.00","83"
"15:14:56","42.7","31.5","64.2","30.10","184","3.8","10.8","0.00","0.00","100"
"15:19:59","42.7","31.4","64.1","30.10","120","4.8","7.2","0.00","0.00","100"
"15:24:58","42.6","31.3","64.2","30.10","128","3.5","7.2","0.00","0.00","60"
"15:29:57","42.5","31.3","64.3","30.10","123","4.4","8.4","0.00","0.00","83"
"15:34:56","42.4","31.5","65","30.10","118","4","8.1","0.00","0.00","88"
"15:39:59","42.4","31.7","65.6","30.10","106","3.4","7.2","0.00","0.00","70"
"15:44:58","42.4","31.9","66.2","30.11","116","3","6","0.00","0.00","60"
"15:49:57","42.4","31.9","66.2","30.11","129","4.2","8.4","0.00","0.00","74"
"15:54:58","42.4","31.8","65.8","30.11","140","4","9.6","0.00","0.00","84"
"15:59:59","42.4","31.9","66.3","30.11","128","3.3","6","0.00","0.00","67"
"16:04:57","42.4","32.1","66.6","30.11","128","3.5","7.2","0.00","0.00","54"
"16:09:56","42.3","32","66.6","30.11","126","3.5","10.8","0.00","0.00","42"
"16:14:56","42.1","31.6","66","30.11","136","4.7","10.8","0.00","0.00","35"
"16:19:58","42","31.7","66.7","30.11","131","2.7","9.2","0.00","0.00","33"
"16:24:57","41.9","31.8","67.2","30.11","116","3.9","8.4","0.00","0.00","37"
"16:29:57","41.8","31.6","67","30.11","142","3.1","8.4","0.00","0.00","37"
"16:34:56","41.8","31.8","67.5","30.10","169","2.1","8.4","0.00","0.00","26"
"16:39:59","41.8","31.6","67","30.10","141","3.9","8.4","0.00","0.00","26"
"16:44:59","41.7","31.5","67","30.10","131","4.2","9.6","0.00","0.00","21"
"16:49:58","41.6","31.4","66.8","30.10","132","3.9","13.2","0.00","0.00","14"
"16:54:57","41.6","31.4","67","30.10","132","4.1","12.7","0.00","0.00","14"
"16:59:57","41.5","31.4","67","30.10","154","2.3","6","0.00","0.00","11"
"17:04:59","41.4","31.5","67.5","30.10","130","3.3","6","0.00","0.00","7"
"17:09:58","41.3","31.4","67.7","30.10","127","3.3","8.4","0.00","0.00","7"
"17:14:59","41.2","31.4","68","30.10","139","4.3","9.6","0.00","0.00","5"
"17:19:58","41.1","31.3","68","30.10","129","4.6","8.4","0.00","0.00","0"
"17:24:57","41.1","31.3","68.1","30.10","130","3.7","7.2","0.00","0.00","0"
"17:29:59","41","31.2","68.1","30.11","137","4.2","8.4","0.00","0.00","0"
"17:34:59","40.9","31.5","68.9","30.11","124","3.7","8.4","0.00","0.00","0"
"17:39:58","40.8","31.4","69","30.11","122","3.5","7.2","0.00","0.00","0"
"17:44:58","40.8","31.4","69","30.11","145","2.5","5.8","0.00","0.00","0"
"17:49:58","40.8","31.4","69","30.11","153","3.9","8.4","0.00","0.00","0"
"17:54:57","40.7","31.3","69","30.11","143","3","6","0.00","0.00","0"
"17:59:57","40.7","31.3","69","30.12","169","2.9","10.8","0.00","0.00","0"
"18:04:59","40.7","31.3","69","30.12","146","2.5","6","0.00","0.00","0"
"18:09:59","40.6","31.2","69","30.12","127","2.7","6","0.00","0.00","0"
"18:14:56","40.6","31.3","69.1","30.12","162","2.2","4.8","0.00","0.00","0"
"18:19:59","40.6","31.5","69.8","30.12","145","2.2","6","0.00","0.00","0"
"18:24:59","40.5","31.4","69.7","30.12","146","3.8","8.4","0.00","0.00","0"
"18:29:59","40.5","31.2","69.3","30.12","181","3.1","8.4","0.00","0.00","0"
"18:34:59","40.5","31.5","70","30.12","162","2.7","8.1","0.00","0.00","0"
"18:39:59","40.4","31.4","70","30.12","149","2.1","4.8","0.00","0.00","0"
"18:44:59","40.4","31.4","70","30.12","124","3.1","7.2","0.00","0.00","0"
"18:49:58","40.4","31.4","70","30.12","127","4","7.2","0.00","0.00","0"
"18:54:58","40.4","31.4","70","30.12","133","2.8","6.9","0.00","0.00","0"
"18:59:58","40.3","31.3","70","30.12","158","2","7.2","0.00","0.00","0"
"19:04:56","40.3","31.3","70","30.12","173","3.6","8.4","0.00","0.00","0"
"19:09:59","40.2","31.2","70","30.12","137","2.9","7.2","0.00","0.00","0"
"19:14:57","40.2","31.2","70","30.12","137","3.2","6.9","0.00","0.00","0"
"19:19:56","40.1","31.2","70.2","30.12","124","2.5","6","0.00","0.00","0"
"19:24:56","40.1","31.3","70.8","30.12","128","1.4","2.4","0.00","0.00","0"
"19:29:56","40","31.3","70.8","30.12","119","2.3","4.8","0.00","0.00","0"
"19:34:56","40","31.4","71","30.12","131","2.7","6","0.00","0.00","0"
"19:39:59","40","31.3","70.9","30.12","120","2.4","4.8","0.00","0.00","0"
"19:44:57","39.9","31.2","70.7","30.13","121","2.2","6","0.00","0.00","0"
"19:49:57","39.8","31","70.5","30.13","116","3","7.2","0.00","0.00","0"
"19:54:56","39.7","30.8","70.3","30.13","120","4.2","12","0.00","0.00","0"
"19:59:59","39.5","30.5","70","30.13","115","5.5","12","0.00","0.00","0"
"20:04:57","39.4","30.5","70.2","30.13","112","4.6","12","0.00","0.00","0"
"20:09:56","39.3","30.3","70.2","30.13","128","4.6","10.8","0.00","0.00","0"
"20:14:58","39.2","30.5","70.8","30.13","124","3.5","6.9","0.00","0.00","0"
"20:19:58","39.1","30.5","71","30.13","136","3.4","8.4","0.00","0.00","0"
"20:24:57","39.1","30.5","71","30.13","130","4.3","10.8","0.00","0.00","0"
"20:29:57","39","30.2","70.5","30.13","132","4.6","8.4","0.00","0.00","0"
"20:34:56","38.9","30.1","70.5","30.13","119","4.7","7.2","0.00","0.00","0"
"20:39:56","38.9","30.3","71","30.13","122","4.1","9.6","0.00","0.00","0"
"20:44:56","38.8","30.1","70.8","30.13","139","3.8","8.4","0.00","0.00","0"
"20:49:56","38.7","30.1","71","30.12","119","4.2","12","0.00","0.00","0"
"20:54:59","38.6","30","71","30.12","121","3.7","10.4","0.00","0.00","0"
"20:59:56","38.6","30","71","30.12","123","4.3","9.6","0.00","0.00","0"
"21:04:58","38.5","29.9","71","30.12","131","3.7","8.4","0.00","0.00","0"
"21:09:57","38.4","29.8","71","30.12","140","4.6","8.4","0.00","0.00","0"
"21:14:58","38.4","29.8","71","30.12","147","4.1","8.4","0.00","0.00","0"
"21:19:58","38.4","29.8","71","30.12","122","4.6","8.4","0.00","0.00","0"
"21:24:57","38.4","29.8","71","30.12","132","2.8","7.2","0.00","0.00","0"
"21:29:57","38.4","29.8","71","30.12","122","4.2","8.4","0.00","0.00","0"
"21:34:56","38.3","29.7","71","30.12","138","4","10.8","0.00","0.00","0"
"21:39:56","38.2","29.6","70.8","30.12","123","4.5","7.2","0.00","0.00","0"
"21:44:57","38.2","29.6","71","30.12","128","2.8","6.9","0.00","0.00","0"
"21:49:56","38.2","29.6","71","30.12","121","3.3","7.2","0.00","0.00","0"
"21:54:59","38.1","29.5","71","30.12","110","3.3","6","0.00","0.00","0"
"21:59:56","38","29.4","71","30.12","120","4","8.4","0.00","0.00","0"
"22:04:58","37.9","29.3","71","30.11","125","3.6","8.4","0.00","0.00","0"
"22:09:57","37.9","29.3","71","30.11","124","2.4","8.4","0.00","0.00","0"
"22:14:58","37.8","29.2","71","30.11","128","3.6","8.1","0.00","0.00","0"
"22:19:58","37.7","29.1","71","30.11","91","2.1","5.8","0.00","0.00","0"
"22:24:57","37.7","29.1","71","30.11","137","2.9","4.8","0.00","0.00","0"
"22:29:57","37.7","29.2","71.2","30.11","114","2.2","4.8","0.00","0.00","0"
"22:34:57","37.7","29.3","71.5","30.11","129","2.5","4.8","0.00","0.00","0"
"22:39:56","37.7","29.2","71.4","30.11","142","2.3","4.6","0.00","0.00","0"
"22:44:58","37.6","29.3","71.7","30.11","130","1.7","3.6","0.00","0.00","0"
"22:49:57","37.6","29.4","72","30.11","123","1.5","6","0.00","0.00","0"
"22:54:57","37.6","29.4","72","30.11","119","1.5","3.6","0.00","0.00","0"
"22:59:57","37.6","29.5","72.5","30.11","119","1.5","3.6","0.00","0.00","0"
"23:04:59","37.6","29.4","72","30.11","123","2.8","6","0.00","0.00","0"
"23:09:58","37.6","29.5","72.3","30.11","112","2.8","6","0.00","0.00","0"
"23:14:59","37.6","29.6","72.6","30.11","108","2.1","4.8","0.00","0.00","0"
"23:19:59","37.6","29.7","73","30.11","121","2.5","6","0.00","0.00","0"
"23:24:59","37.6","29.7","73","30.11","132","1.6","4.6","0.00","0.00","0"
"23:29:59","37.6","29.7","73","30.11","132","1.8","3.6","0.00","0.00","0"
"23:34:59","37.6","29.7","73.1","30.11","134","0.8","2.4","0.00","0.00","0"
"23:39:58","37.5","29.9","73.6","30.11","134","0.9","3.6","0.00","0.00","0"
"23:44:56","37.5","29.9","73.8","30.11","134","1.6","4.8","0.00","0.00","0"
